Regional Weather Roundup
Issued by NWS

Home | Current Version | Previous Version | Text Only | Print | Product List | Glossary Off
Versions: 1 2 3 4 5 6 7 8 9 10 11 12 13 14 15 16 17 18 19 20 21 22 23 24 25 26 27 28 29 30 31 32 33 34 35 36 37 38 39 40 41 42 43 44 45 46 47 48 49 50

000
ASUS43 KFSD 201802
RWRSD

WEATHER ROUNDUP FOR SOUTH DAKOTA
NATIONAL WEATHER SERVICE SIOUX FALLS SD
1200 PM CST THU NOV 20 2014

NOTE: "FAIR" INDICATES FEW OR NO CLOUDS BELOW 12,000 FEET WITH NO
SIGNIFICANT WEATHER AND/OR OBSTRUCTIONS TO VISIBILITY.


SDZ001>005-009-010-012>017-201900-
NORTHWEST AND NORTH CENTRAL SOUTH DAKOTA

CITY           SKY/WX    TMP DP  RH WIND       PRES   REMARKS
BUFFALO          N/A     20  16  84 S9        29.89F WCI   9
FAITH            N/A     22  15  75 S13       30.03S WCI  10
MOBRIDGE       CLOUDY    19  10  68 S6        30.09F WCI  11
$$

SDZ012>016-024>037-041>051-057-063-072>074-201900-
SOUTHWEST AND SOUTH CENTRAL SOUTH DAKOTA

CITY           SKY/WX    TMP DP  RH WIND       PRES   REMARKS
RAPID CTY ARPT FOG       19  16  88 SE7       29.98F VSB 1/2 WCI  10
PIERRE         CLOUDY    20  14  77 E3        30.13F
CUSTER         SUNNY     40  15  36 W12       29.91F
ELLSWORTH AFB  SUNNY     26  22  84 SE8       29.96F WCI  18
PHILIP         SUNNY     24  15  68 SE8       30.07F WCI  15
PINE RIDGE     SUNNY     31  22  69 NW7       29.99F WCI  24
WINNER         CLOUDY    24  15  68 E6        30.12F WCI  17
$$

SDZ004>011-016>023-039-040-201900-
NORTHEAST SOUTH DAKOTA

CITY           SKY/WX    TMP DP  RH WIND       PRES   REMARKS
ABERDEEN       SUNNY     20   6  55 CALM      30.18S
WATERTOWN      SUNNY     11   6  81 NW5       30.13S WCI   3
SISSETON         N/A     15   6  67 NW8       30.17R WCI   4
$$

SDZ017-020-022-023-036>040-048>070-201900-
SOUTHEAST SOUTH DAKOTA

CITY           SKY/WX    TMP DP  RH WIND       PRES   REMARKS
SIOUX FALLS    SUNNY     19  10  68 NW9       30.18F WCI   8
HURON          SUNNY     18   9  68 NW5       30.19F WCI  11
CHAMBERLAIN    CLOUDY    20  13  73 S3        30.16F
MITCHELL       PTSUNNY   21  11  65 NW10      30.21S WCI  10
YANKTON        CLOUDY    21  12  68 NW10      30.22F WCI  10
$$

ABBREVIATIONS USED IN REMARKS
   TC - TEMPERATURE IN CELSIUS
  WCI - WIND CHILL INDEX
   HX - HEAT INDEX
  VSB - VISIBILITY




USA.gov is the U.S. government's official web portal to all federal, state and local government web resources and services.